﻿Дата;Google;AdRiver
2024-06-13;3;0
2024-06-12;3;0
2024-06-11;3;0
2024-06-10;6;0
2024-06-09;7;0
2024-06-08;7;0
2024-06-07;16;0
2024-05-31;8;0
2024-05-30;10;0
2024-05-29;8;0
2024-05-28;6;0
2024-05-27;7;0
2024-05-26;9;0
2024-05-25;1;0
2024-05-23;10;0
2024-05-22;5;0
2024-05-21;20;0
2024-05-20;8;0
2024-05-19;8;0
2024-05-18;11;0
2024-05-16;5;0
2024-05-15;9;0
2024-05-14;10;0
2024-05-13;7;0
2024-05-12;5;0
2024-05-11;2;0
2024-05-10;3;0
2024-05-09;7;0
2024-05-08;6;0
2024-05-07;4;0
2024-05-06;4;0
2024-05-05;4;0
2024-04-22;3;0
2024-04-20;1;0
2024-04-18;16;0
2024-04-16;7;0
2024-04-15;8;0
2024-04-14;3;0
2024-04-13;7;0
2024-04-12;4;0
2024-04-06;4;0
2024-04-05;1;0
2024-04-03;4;0
2024-04-02;14;0
2024-04-01;4;0
2024-03-31;13;0
2024-03-30;6;0
2024-03-29;8;0
2024-03-28;4;0
2024-03-27;17;0
2024-03-26;2;0
2024-03-25;1;0
2024-03-24;3;0
2024-03-23;2;0
2024-03-22;6;0
2024-03-21;9;0
2024-03-20;7;0
2024-03-19;3;0
2024-03-16;8;0
2024-03-15;2;0
2024-03-13;6;0
2024-03-12;1;0
2024-03-10;3;0
2024-03-07;8;0
2024-03-05;1;0
2024-03-04;6;0
2024-03-03;4;0
2024-03-02;7;0
2024-03-01;7;0
2024-02-29;8;0
2024-02-28;11;0
2024-02-27;12;0
2024-02-26;12;0
2024-02-25;2;0
2024-02-24;5;0
2024-02-23;1;0
2024-02-10;1;0
2024-02-07;1;0
2024-02-03;1;0
2024-01-27;5;0
2024-01-26;11;0
2024-01-25;9;0
2024-01-24;13;0
2024-01-23;7;0
2024-01-22;17;0
2024-01-21;11;0
2024-01-20;13;0
2024-01-19;9;0
2024-01-18;8;0
2024-01-17;12;0
2024-01-16;6;0
2024-01-15;9;0
2024-01-14;22;0
2024-01-13;14;0
2024-01-12;23;0
2024-01-11;17;0
2024-01-10;25;0
2024-01-09;28;0
2024-01-08;23;0
2024-01-07;16;0
2024-01-06;13;0
2024-01-05;9;0
2024-01-04;14;0
2024-01-03;6;0
2024-01-02;8;0
2024-01-01;8;0
2023-12-31;13;0
2023-12-30;22;0
2023-12-29;10;0
2023-12-28;4;0
2023-12-27;2;0
2023-12-26;15;0
2023-12-24;2;0
2023-12-23;2;0
2023-12-22;10;0
2023-12-21;12;0
2023-12-20;14;0
2023-12-19;5;0
2023-12-18;17;0
2023-12-16;18;0
2023-12-15;21;0
2023-12-14;14;0
2023-12-13;6;0
2023-12-12;11;0
2023-12-11;14;0
2023-12-10;15;0
2023-12-09;6;0
2023-12-08;7;0
2023-12-07;4;0
2023-12-06;5;0
2023-12-05;7;0
2023-12-04;11;0
2023-12-03;6;0
2023-12-02;7;0
2023-12-01;5;0
2023-11-30;12;0
2023-11-29;20;0
2023-11-28;28;0
2023-11-27;14;0
2023-11-26;5;0
2023-11-25;8;0
2023-11-24;12;0
2023-11-22;18;0
2023-11-21;7;0
2023-11-20;1;0
2023-11-19;1;0
2023-11-18;7;0
2023-11-17;20;0
2023-11-16;1;0
2023-11-14;5;0
2023-11-13;10;0
2023-11-11;9;0
2023-11-10;2;0
2023-11-09;4;0
2023-11-07;38;0
2023-11-06;34;0
2023-11-05;24;0
2023-11-04;19;0
2023-11-03;10;0
2023-11-02;26;0
2023-11-01;12;0
2023-10-31;2;0
2023-10-30;6;0
2023-10-29;8;0
2023-10-28;6;0
2023-10-27;9;0
2023-10-26;12;0
2023-08-16;1;0
2022-09-27;1;0
2022-09-19;1;0
2022-09-04;1;0
2022-08-04;1;0
2022-06-16;1;0
2022-05-28;1;0
2022-05-26;1;0
2022-05-11;1;0
2022-05-06;1;0
2022-04-30;1;0
2022-04-28;1;0
2022-04-11;1;0
2022-03-23;1;0
2022-03-05;2;0
2022-03-02;1;0
2022-02-27;1;0
2020-04-23;1;0
2019-01-31;1;0
2019-01-19;1;0
2019-01-14;2;0
2019-01-13;1;0
2019-01-11;1;0
2019-01-09;1;0
2018-12-01;1;0
2016-05-02;1;0
2016-04-10;1;0
2016-01-05;2;0
2016-01-03;1;0
2016-01-02;2;0
2016-01-01;1;0
2015-08-11;1;0
2015-07-31;1;0
2015-07-28;1;0
2015-07-16;1;0
2015-07-15;3;0
2015-07-12;1;0
2015-07-07;1;0
2015-07-02;1;0
2015-06-28;1;0
2015-06-25;1;0
2015-06-23;2;0
2015-06-20;1;0
2015-06-18;2;0
2015-06-17;1;0
2015-06-16;2;0
2015-06-15;1;0
2015-06-12;2;0
2015-06-09;1;0
2015-06-08;1;0
2015-06-07;1;0
2015-06-06;1;0
2015-06-05;1;0
2015-05-25;3;0
2015-05-24;1;0
2015-05-23;1;0
2015-05-21;4;0
2015-05-20;7;0
2015-05-18;1;0
2015-05-17;1;0
2015-05-16;2;0
2015-05-15;1;0
2015-05-14;1;0
2015-05-13;2;0
2015-05-12;1;0
2015-05-11;1;0
2015-05-10;3;0
2015-05-08;1;0
2015-05-07;3;0
2015-05-03;3;0
2015-05-02;2;0
2015-05-01;2;0
2015-04-30;1;0
2015-04-29;2;0
2015-04-28;3;0
2015-04-27;5;0
2015-04-26;1;0
2015-04-25;1;0
2015-04-24;1;0
2015-04-23;5;0
2015-04-22;2;0
2015-04-21;4;0
2015-04-20;4;0
2015-04-19;4;0
2015-04-18;1;0
2015-04-17;1;0
2015-04-16;1;0
2015-04-15;2;0
2015-04-14;5;0
2015-04-13;1;0
2015-04-12;4;0
2015-04-09;5;0
2015-04-08;2;0
2015-04-07;1;0
2015-04-06;3;0
2015-04-05;4;0
2015-04-04;1;0
2015-04-03;2;0
2015-04-02;4;0
2015-04-01;2;0
2015-03-31;6;0
2015-03-30;4;0
2015-03-29;7;0
2015-03-28;2;0
2015-03-27;3;0
2015-03-26;6;0
2015-03-25;2;0
2015-03-24;5;0
2015-03-23;7;0
2015-03-22;9;0
2015-03-21;4;0
2015-03-20;4;0
2015-03-19;3;0
2015-03-18;3;0
2015-03-17;4;0
2015-03-16;4;0
2015-03-15;4;0
2015-03-14;3;0
2015-03-13;3;0
2015-03-12;5;0
2015-03-11;3;0
2015-03-10;4;0
2015-03-08;2;0
2015-03-07;3;0
2015-03-06;2;0
2015-03-05;6;0
2015-03-04;3;0
2015-03-03;3;0
2015-03-02;2;0
2015-03-01;1;0
2015-02-28;3;0
2015-02-27;3;0
2015-02-25;2;0
2015-02-24;2;0
2015-02-23;1;0
2015-02-22;2;0
2015-02-21;1;0
2015-02-20;1;0
2015-02-19;1;0
2015-02-18;1;0
2015-02-17;2;0
2015-02-16;3;0
2015-02-15;2;0
2015-02-13;1;0
2015-02-12;2;0
2015-02-11;2;0
2015-02-10;2;0
2015-02-09;4;0
2015-02-08;6;0
2015-02-07;3;0
2015-02-06;3;0
2015-02-05;4;0
2015-02-04;3;0
2015-02-03;5;0
2015-02-01;6;0
2015-01-31;4;0
2015-01-30;1;0
2015-01-29;3;0
2015-01-28;2;0
2015-01-27;2;0
2015-01-26;3;0
2015-01-25;5;0
2015-01-24;3;0
2015-01-23;1;0
2015-01-22;2;0
2015-01-21;3;0
2015-01-20;5;0
2015-01-19;4;0
2015-01-18;11;0
2015-01-17;5;0
2015-01-16;7;0
2015-01-15;4;0
2015-01-14;4;0
2015-01-13;3;0
2015-01-12;1;0
2015-01-11;3;0
2015-01-10;3;0
2015-01-09;10;0
2015-01-08;3;0
2015-01-07;1;0
2015-01-06;3;0
2015-01-05;1;0
2015-01-04;5;0
2015-01-03;2;0
2015-01-02;4;0
2015-01-01;4;0
2014-12-31;2;0
2014-12-30;1;0
2014-12-29;1;0
2014-12-28;3;0
2014-12-27;3;0
2014-12-25;1;0
2014-12-24;3;0
2014-12-22;4;0
2014-12-21;3;0
2014-12-20;2;0
2014-12-18;2;0
2014-12-17;1;0
2014-12-16;1;0
2014-12-15;1;0
2014-12-14;1;0
2014-12-13;2;0
2014-12-12;3;0
2014-12-10;2;0
2014-12-06;1;0
2014-12-02;1;0
2014-12-01;1;0
2014-11-30;2;0
2014-11-29;2;0
2014-11-28;1;0
2014-11-23;2;0
2014-11-22;1;0
2014-11-21;1;0
2014-11-20;1;0
2014-11-19;4;0
2014-11-18;2;0
2014-11-17;3;0
2014-11-16;1;0
2014-11-15;1;0
2014-11-13;1;0
2014-11-12;3;0
2014-11-08;1;0
2014-11-07;1;0
2014-11-05;1;0
2014-11-04;2;0
2014-11-03;2;0
2014-11-02;1;0
2014-11-01;1;0
2014-10-31;1;0
2014-10-30;1;0
2014-10-28;1;0
2014-10-27;1;0
2014-10-26;1;0
2014-10-25;1;0
2014-10-24;3;0
2014-10-23;1;0
2014-10-22;1;0
2014-10-21;2;0
2014-10-20;1;0
2014-10-19;1;0
2014-10-18;2;0
2014-10-17;2;0
2014-10-16;2;0
2014-10-14;1;0
2014-10-13;1;0
2014-10-12;1;0
2014-10-11;1;0
2014-10-08;3;0
2014-10-07;3;0
2014-10-06;4;0
2014-10-03;5;0
2014-10-01;1;0
2014-09-30;2;0
2014-09-28;3;0
2014-09-27;1;0
2014-09-26;1;0
2014-09-25;1;0
2014-09-23;2;0
2014-09-22;4;0
2014-09-21;6;0
2014-09-20;1;0
2014-09-19;2;0
2014-09-18;1;0
2014-09-17;1;0
2014-09-16;2;0
2014-09-15;2;0
2014-09-14;1;0
2014-09-13;1;0
2014-09-12;2;0
2014-09-11;3;0
2014-09-10;1;0
2014-09-09;2;0
2014-09-08;5;0
2014-09-06;2;0
2014-09-05;3;0
2014-09-04;5;0
2014-09-03;3;0
2014-09-02;6;0
2014-08-31;2;0
2014-08-30;3;0
2014-08-29;2;0
2014-08-28;7;0
2014-08-27;1;0
2014-08-26;2;0
2014-08-25;3;0
2014-08-24;2;0
2014-08-23;6;0
2014-08-22;2;0
2014-08-21;3;0
2014-08-20;4;0
2014-08-19;3;0
2014-08-18;4;0
2014-08-17;11;0
2014-08-16;3;0
2014-08-15;6;0
2014-08-14;3;0
2014-08-13;4;0
2014-08-12;3;0
2014-08-11;7;0
2014-08-10;5;0
2014-08-09;2;0
2014-08-08;7;0
2014-08-07;5;0
2014-08-06;5;0
2014-08-05;8;0
2014-08-04;1;0
2014-08-03;6;0
2014-08-02;6;0
2014-08-01;2;0
2014-07-31;4;0
2014-07-30;6;0
2014-07-29;4;0
2014-07-28;5;0
2014-07-27;6;0
2014-07-26;7;0
2014-07-24;6;0
2014-07-23;14;0
2014-07-22;12;0
2014-07-21;20;0
2014-07-20;14;0
2014-07-19;8;0
2014-07-18;16;0
2014-07-17;5;0
2014-07-16;9;0
2014-07-15;10;0
2014-07-14;9;0
2014-07-13;9;0
2014-07-12;10;0
2014-07-11;16;0
2014-07-10;11;0
2014-07-09;15;0
2014-07-08;17;0
2014-07-07;11;0
2014-07-06;13;0
2014-07-05;9;0
2014-07-04;14;0
2014-07-03;24;0
2014-07-02;21;0
2014-07-01;21;0
2014-06-30;14;0
2014-06-29;15;0
2014-06-28;10;0
2014-06-27;16;0
2014-06-26;21;0
2014-06-25;18;0
2014-06-24;22;0
2014-06-23;19;0
2014-06-22;24;0
2014-06-21;14;0
2014-06-20;14;0
2014-06-19;16;0
2014-06-18;17;0
2014-06-17;18;0
2014-06-16;18;0
2014-06-15;22;0
2014-06-14;14;0
2014-06-13;17;0
2014-06-12;17;0
2014-06-11;23;0
2014-06-10;19;0
2014-06-09;13;0
2014-06-08;18;0
2014-06-07;21;0
2014-06-06;10;0
2014-06-05;18;0
2014-06-04;18;0
2014-06-03;23;0
2014-06-02;18;0
2014-06-01;25;0
2014-05-31;18;0
2014-05-30;18;0
2014-05-29;16;0
2014-05-28;18;0
2014-05-27;9;0
2014-05-26;10;0
2014-05-25;16;0
2014-05-24;15;0
2014-05-23;17;0
2014-05-22;13;0
2014-05-21;11;0
2014-05-20;14;1
2014-05-19;15;0
2014-05-18;20;0
2014-05-17;20;0
2014-05-16;13;0
2014-05-15;15;0
2014-05-03;12;0
2014-05-02;16;0
2014-05-01;15;0
2014-04-30;6;0
2014-04-29;5;0
2014-04-28;7;0
2014-04-27;12;0
2014-04-26;19;0
2014-04-25;7;0
2014-04-24;10;0
2014-04-23;13;0
2014-04-22;15;0
2014-04-21;16;0
2014-04-20;17;0
2014-04-19;23;0
2014-04-18;15;0
2014-04-17;13;0
2014-04-16;21;0
2014-04-15;19;0
2014-04-14;22;0
2014-04-13;20;0
2014-04-12;13;0
2014-04-11;18;0
2014-04-10;13;0
2014-04-09;14;0
2014-04-08;14;0
2014-04-07;22;0
2014-04-06;17;0
2014-04-05;18;0
2014-04-04;17;0
2014-04-03;12;0
2014-04-02;17;0
2014-04-01;13;0
2014-03-26;8;0
2014-03-25;9;0
2014-03-24;12;0
2014-03-23;16;0
2014-03-22;10;0
2014-03-21;7;0
2014-03-20;13;0
2014-03-19;16;0
2014-03-18;17;0
2014-03-17;11;0
2014-03-16;13;0
2014-03-15;14;0
2014-03-14;6;0
2014-03-13;4;0
2014-03-12;16;0
2014-03-11;8;0
2014-03-10;9;0
2014-03-09;9;0
2014-03-08;1;0
2014-03-07;6;0
2014-03-06;13;0
2014-03-05;6;0
2014-03-04;9;0
2014-03-03;9;0
2014-03-02;12;0
2014-03-01;6;0
2014-02-28;9;0
2014-02-27;5;0
2014-02-26;6;0
2014-02-25;5;0
2014-02-24;8;0
2014-02-23;9;0
2014-02-22;3;0
2014-02-21;4;0
2014-02-19;2;0
2014-02-18;6;0
2014-02-17;13;0
2014-02-16;19;0
2014-02-15;10;0
2014-02-14;8;0
2014-02-13;6;0
2014-02-12;14;0
2014-02-11;12;0
2014-02-10;7;0
2014-02-09;12;0
2014-02-08;11;0
2014-02-07;11;0
2014-02-06;9;0
2014-02-05;9;0
2014-02-04;6;0
2014-02-03;7;0
2014-02-02;10;0
2014-02-01;9;0
2014-01-31;7;0
2014-01-30;9;0
2014-01-29;9;0
2014-01-28;6;0
2014-01-27;7;0
2014-01-26;9;0
2014-01-25;7;0
2014-01-24;5;0
2014-01-23;7;0
2014-01-22;4;0
2014-01-21;5;0
2014-01-20;13;0
2014-01-19;8;0
2014-01-18;9;0
2014-01-17;8;0
2014-01-16;10;0
2014-01-15;3;0
2014-01-13;2;0
2014-01-12;17;0
2014-01-11;6;0
2014-01-10;8;0
2014-01-09;9;0
2014-01-08;9;0
2014-01-07;13;0
2014-01-06;4;0
2014-01-05;9;0
2014-01-04;11;1
2014-01-03;5;0
2014-01-02;5;0
2014-01-01;3;0
2013-12-29;5;0
2013-12-28;3;0
2013-12-27;2;0
2013-12-26;4;0
2013-12-25;1;0
2013-12-24;6;0
2013-12-23;8;0
2013-12-22;4;0
2013-12-21;4;0
2013-12-20;1;0
2013-12-19;1;0
2013-12-18;4;0
2013-12-17;6;0
2013-12-16;4;0
2013-12-14;1;0
2013-12-13;2;0
2013-12-12;1;0
2013-12-11;1;0
2013-12-10;6;0
2013-12-09;3;0
2013-12-08;2;0
2013-12-06;1;0
2013-12-05;0;1
2013-12-04;1;0
2013-12-03;3;0
2013-12-01;3;0
2013-11-30;5;0
2013-11-29;2;0
2013-11-28;4;0
2013-11-27;1;0
2013-11-26;1;0
2013-11-25;6;0
2013-11-24;6;0
2013-11-23;3;0
2013-11-21;4;0
2013-11-20;3;0
2013-11-19;2;0
2013-11-18;2;0
2013-11-17;5;0
2013-11-16;2;0
2013-11-15;1;0
2013-11-14;1;0
2013-11-13;1;0
2013-11-12;3;0
2013-11-11;5;0
2013-11-10;4;0
2013-11-09;3;0
2013-11-08;4;0
2013-11-07;6;0
2013-11-06;6;0
2013-11-05;3;0
2013-11-04;5;0
2013-11-03;3;0
2013-11-02;1;0
2013-11-01;1;0
2013-10-31;3;0
2013-10-28;2;0
2013-10-27;3;0
2013-10-26;1;0
2013-10-25;6;0
2013-10-24;2;0
2013-10-23;2;0
2013-10-22;3;0
2013-10-21;7;0
2013-10-20;3;0
2013-10-19;1;0
2013-10-18;2;0
2013-10-17;2;0
2013-10-16;3;0
2013-10-15;3;0
2013-10-14;4;0
2013-10-13;4;0
2013-10-12;1;0
2013-10-10;2;0
2013-10-09;2;0
2013-10-08;3;0
2013-10-07;3;0
2013-10-05;4;0
2013-10-04;4;0
2013-10-03;3;0
2013-10-02;3;0
2013-10-01;1;0
2013-09-30;1;0
2013-09-29;3;0
2013-09-28;1;0
2013-09-27;1;0
2013-09-26;2;0
2013-09-25;3;0
2013-09-24;2;0
2013-09-23;7;0
2013-09-22;3;0
2013-09-21;2;0
2013-09-20;2;0
2013-09-19;4;0
2013-09-18;3;0
2013-09-17;1;0
2013-09-16;2;0
2013-09-15;5;0
2013-09-14;2;0
2013-09-13;4;0
2013-09-12;1;0
2013-09-11;1;0
2013-09-10;5;0
2013-09-09;5;0
2013-09-08;4;0
2013-09-07;2;0
2013-09-06;2;0
2013-09-05;4;0
2013-09-04;3;0
2013-09-03;9;0
2013-09-02;8;0
2013-09-01;3;0
2013-08-31;5;0
2013-08-30;5;0
2013-08-29;6;0
2013-08-28;3;0
2013-08-27;3;0
2013-08-26;4;0
2013-08-25;2;0
2013-08-23;2;0
2013-08-22;3;0
2013-08-21;3;0
2013-08-20;3;0
2013-08-19;3;0
2013-08-18;4;0
2013-08-17;3;0
2013-08-16;2;0
2013-08-15;2;0
2013-08-14;2;0
2013-08-13;11;0
2013-08-12;6;0
2013-08-11;4;0
2013-08-10;3;0
2013-08-09;4;0
2013-08-08;2;0
2013-08-07;4;0
2013-08-06;4;0
2013-08-05;1;0
2013-08-04;1;0
2013-08-03;3;0
2013-08-02;6;0
2013-08-01;10;0
2013-07-31;5;0
2013-07-30;7;0
2013-07-29;6;0
2013-07-28;7;0
2013-07-27;1;0
2013-07-26;6;0
2013-07-25;8;0
2013-07-24;2;0
2013-07-23;10;0
2013-07-22;12;0
2013-07-21;4;0
2013-07-20;3;0
2013-07-19;7;0
2013-07-18;5;0
2013-07-17;8;0
2013-07-16;14;0
2013-07-15;10;0
2013-07-14;9;0
2013-07-13;3;0
2013-07-12;4;0
2013-07-11;3;0
2013-07-10;6;0
2013-07-09;14;0
2013-07-08;7;0
2013-07-07;9;0
2013-07-06;5;0
2013-07-05;1;0
2013-07-04;4;0
2013-07-03;11;0
2013-07-02;12;0
2013-07-01;11;0
2013-06-30;11;0
2013-06-29;7;0
2013-06-28;9;0
2013-06-27;12;0
2013-06-26;4;0
2013-06-25;10;0
2013-06-24;9;0
2013-06-23;9;0
2013-06-22;5;0
2013-06-21;2;0
2013-06-20;7;0
2013-06-19;16;0
2013-06-18;5;0
2013-06-17;12;0
2013-06-16;10;0
2013-06-15;6;0
2013-06-14;8;0
2013-06-13;9;0
2013-06-12;13;0
2013-06-11;11;0
2013-06-07;11;0
2013-06-06;11;0
2013-06-05;10;0
2013-06-04;5;0
2013-06-03;16;0
2013-06-02;11;0
2013-06-01;13;0
2013-05-31;17;0
2013-05-30;15;0
2013-05-29;11;0
2013-05-28;11;0
2013-05-27;15;0
2013-05-26;13;0
2013-05-25;9;0
2013-05-24;12;0
2013-05-23;11;0
2013-05-22;15;0
2013-05-21;13;0
2013-05-20;13;0
2013-05-19;13;0
2013-05-18;8;0
2013-05-17;15;0
2013-05-16;18;0
2013-05-15;16;0
2013-05-14;17;0
2013-05-08;5;0
2013-05-07;12;0
2013-05-06;25;0
2013-05-05;21;0
2013-05-04;15;0
2013-05-03;12;0
2013-05-02;17;0
2013-05-01;15;0
2013-04-30;20;0
2013-04-29;14;0
2013-04-28;14;0
2013-04-27;9;0
2013-04-26;17;0
2013-04-25;20;0
2013-04-24;19;0
2013-04-23;13;0
2013-04-22;19;0
2013-04-21;18;0
2013-04-20;10;0
2013-04-19;15;0
2013-04-18;9;0
2013-04-17;4;0
2013-02-22;1;0
2013-02-21;7;0
2013-02-20;13;0
2013-02-19;8;0
2013-02-18;15;0
2013-02-17;10;0
2013-02-16;12;0
2013-02-15;13;0
2013-02-14;10;0
2013-02-13;23;0
2013-02-12;12;0
2013-02-11;13;0
2013-02-10;14;0
2013-02-09;14;0
2013-02-08;15;0
2013-02-07;12;0
2013-02-04;5;0
2013-02-03;19;0
2013-02-02;10;0
2013-02-01;5;0
2013-01-31;11;0
2013-01-30;14;0
2013-01-29;18;0
2013-01-28;12;0
2013-01-27;8;0
2013-01-26;7;0
2013-01-25;8;0
2013-01-24;11;0
2013-01-23;13;0
2013-01-22;10;0
2013-01-21;11;0
2013-01-20;8;0
2013-01-19;8;0
2013-01-18;3;0
2013-01-17;4;0
2013-01-16;8;0
2013-01-15;17;0
2013-01-14;4;0
2013-01-13;17;0
2013-01-12;10;0
2013-01-11;15;0
2013-01-10;10;0
2013-01-09;17;0
2013-01-08;7;0
2013-01-07;4;0
2013-01-06;7;0
2013-01-05;11;0
2013-01-04;10;0
2013-01-03;8;0
2013-01-02;10;0
2013-01-01;2;0
2012-12-31;2;0
2012-12-30;1;0
2012-12-29;3;0
2012-12-28;5;0
2012-12-27;6;0
2012-12-26;3;0
2012-12-25;5;0
2012-12-24;1;0
2012-12-23;3;0
2012-12-22;4;0
2012-12-21;2;0
2012-12-20;2;0
2012-12-19;2;0
2012-12-18;4;0
2012-12-17;6;0
2012-12-16;10;0
2012-12-15;7;0
2012-12-14;1;0
2012-12-13;2;0
2012-12-12;4;0
2012-12-11;4;0
2012-12-10;10;0
2012-12-09;13;0
2012-12-08;8;0
2012-12-07;4;0
2012-12-06;9;0
2012-12-05;14;0
2012-12-04;11;0
2012-12-03;7;0
2012-12-02;6;0
2012-12-01;3;0
2012-11-30;6;0
2012-11-29;3;0
2012-11-28;4;0
2012-11-27;7;0
2012-11-26;6;0
2012-11-25;3;0
2012-11-24;2;0
2012-11-23;1;0
2012-11-22;1;0
2012-11-21;4;0
2012-11-20;8;0
2012-11-19;6;0
2012-11-18;7;0
2012-11-17;3;0
2012-11-16;2;0
2012-11-15;6;0
2012-11-14;3;0
2012-11-13;8;0
2012-11-12;9;0
2012-11-11;6;0
2012-11-10;2;0
2012-11-09;5;0
2012-11-08;6;0
2012-11-07;4;0
2012-11-06;4;0
2012-11-05;3;0
2012-11-04;4;0
2012-11-03;3;0
2012-11-02;3;0
2012-11-01;4;0
2012-10-31;3;0
2012-10-30;5;0
2012-10-29;4;0
2012-10-28;4;0
2012-10-27;3;0
2012-10-25;1;0
2012-10-24;6;0
2012-10-23;2;0
2012-10-22;5;0
2012-10-21;3;0
2012-10-20;7;0
2012-10-19;8;0
2012-10-18;9;0
2012-10-17;11;0
2012-10-16;9;0
2012-10-15;13;0
2012-10-14;15;0
2012-10-13;7;0
2012-10-12;10;0
2012-10-11;5;0
2012-10-10;6;0
2012-10-09;5;0
2012-10-08;8;0
2012-10-07;3;0
2012-10-05;1;0
2012-10-04;3;0
2012-10-03;1;0
2012-10-02;7;0
2012-10-01;10;0
2012-09-30;4;0
2012-09-29;2;0
2012-09-28;8;0
2012-09-27;4;0
2012-09-26;2;0
2012-09-25;7;0
2012-09-24;9;0
2012-09-23;6;0
2012-09-22;5;0
2012-09-21;8;0
2012-09-20;6;0
2012-09-19;8;0
2012-09-18;10;0
2012-09-17;2;0
2012-09-16;5;0
2012-09-15;3;0
2012-09-14;4;0
2012-09-13;6;0
2012-09-12;9;0
2012-09-11;4;0
2012-09-10;6;0
2012-09-09;1;0
2012-09-08;2;0
2012-09-07;9;0
2012-09-06;8;0
2012-09-05;6;0
2012-09-04;10;0
2012-09-03;7;0
2012-09-02;6;0
2012-09-01;2;0
2012-08-31;3;0
2012-08-30;6;0
2012-08-29;11;0
2012-08-28;3;0
2012-08-27;7;0
2012-08-26;2;0
2012-08-25;3;0
2012-08-24;6;0
2012-08-23;3;0
2012-08-22;4;0
2012-08-21;5;0
2012-08-20;3;0
2012-08-19;13;0
2012-08-18;6;0
2012-08-17;7;0
2012-08-16;8;0
2012-08-15;5;0
2012-08-14;10;0
2012-08-13;10;0
2012-08-12;7;0
2012-08-11;1;0
2012-08-10;4;0
2012-08-09;7;0
2012-08-08;5;0
2012-08-07;4;0
2012-08-06;1;0
2012-08-03;1;0
2012-07-19;4;0
2012-07-18;7;0
2012-07-14;1;0
2012-07-12;4;0
2012-07-11;11;0
2012-07-10;8;0
2012-07-09;7;0
2012-07-08;6;0
2012-07-07;8;0
2012-07-06;8;0
2012-07-05;9;0
2012-07-04;7;0
2012-07-03;9;0
2012-07-02;5;0
2012-06-30;1;0
2012-06-29;9;0
2012-06-28;3;0
2012-06-27;5;0
2012-06-26;9;0
2012-06-25;10;0
2012-06-24;5;0
2012-06-23;8;0
2012-06-22;5;0
2012-06-21;8;0
2012-06-20;11;0
2012-06-19;6;0
2012-06-18;14;0
2012-06-17;7;0
2012-06-16;6;0
2012-06-15;8;0
2012-06-14;6;0
2012-06-13;7;0
2012-06-12;10;0
2012-06-11;7;0
2012-06-10;8;0
2012-06-09;3;0
2012-06-08;4;0
2012-06-07;8;0
2012-06-06;5;0
2012-06-05;4;0
2012-06-04;6;0
2012-06-03;10;0
2012-06-02;10;0
2012-06-01;5;0
2012-05-31;4;0
2012-05-30;1;0
2012-05-29;2;0
2012-05-28;3;0
2012-05-27;6;0
2012-05-26;5;0
2012-05-25;7;0
2012-05-24;6;0
2012-05-23;2;0
2012-05-22;2;0
2012-05-21;1;0
2012-05-20;1;0
2012-05-19;3;0
2012-05-18;4;0
2012-05-17;4;0
2012-05-16;2;0
2012-05-15;5;0
2012-05-14;4;0
2012-05-13;2;0
2012-05-12;5;0
2012-05-11;4;0
2012-05-10;1;0
2012-05-09;5;0
2012-05-08;2;0
2012-05-07;2;0
2012-05-06;10;0
2012-05-05;4;0
2012-05-04;6;0
2012-05-03;4;0
2012-05-02;10;0
2012-05-01;7;0
2012-04-30;7;0
2012-04-29;4;0
2012-04-28;7;0
2012-04-27;9;0
2012-04-26;6;0
2012-04-25;1;0
2012-04-09;2;0
2012-04-08;6;0
2012-04-07;10;0
2012-04-06;5;0
2012-04-05;4;0
2012-04-04;9;0
2012-04-03;7;0
2012-04-02;8;0
2012-04-01;10;0
2012-03-31;8;0
2012-03-30;6;0
2012-03-29;8;0
2012-03-28;7;0
2012-03-27;3;0
2012-03-26;5;0
2012-03-25;8;0
2012-03-24;8;0
2012-03-23;7;0
2012-03-22;7;0
2012-03-21;16;0
2012-03-20;5;0
2012-03-19;3;0
2012-03-18;1;0
2012-02-24;8;0
2012-02-23;8;0
2012-02-22;6;0
2012-02-21;9;0
2012-02-20;12;0
2012-02-19;11;0
2012-02-18;12;0
2012-02-17;9;0
2012-02-16;9;0
2012-02-15;9;0
2012-02-14;8;0
2012-02-13;8;0
2012-02-12;1;0
2012-02-11;2;0
2012-02-10;1;0
2012-02-09;1;0
2012-02-04;4;0
2012-02-03;4;0
2012-02-02;2;0
2012-02-01;2;0
2012-01-31;3;0
2012-01-30;3;0
2012-01-28;2;0
2012-01-27;1;0
2012-01-26;2;0
2012-01-25;1;0
2012-01-24;1;0
2012-01-23;5;0
2012-01-22;6;0
2012-01-21;4;0
2012-01-20;5;0
2012-01-19;5;0
2012-01-18;4;0
2012-01-17;8;0
2012-01-16;8;0
2012-01-15;2;0
2012-01-14;4;0
2012-01-13;6;0
2012-01-12;8;0
2012-01-11;9;0
2012-01-10;8;0
2012-01-09;10;0
2012-01-08;10;0
2012-01-07;12;0
2012-01-06;6;0
2012-01-05;5;0
2012-01-04;9;0
2012-01-03;10;0
2012-01-02;4;0
2012-01-01;1;0
2011-12-31;5;0
2011-12-30;3;0
2011-12-29;5;0
2011-12-28;3;0
2011-12-27;5;0
2011-12-26;6;0
2011-12-25;7;0
2011-12-24;3;0
2011-12-23;5;0
2011-12-22;7;0
2011-12-21;7;0
2011-12-20;5;0
2011-12-19;3;0
2011-12-18;4;0
2011-12-17;3;0
2011-12-16;1;0
2011-12-15;3;0
2011-12-14;3;0
2011-12-13;2;0
2011-12-12;3;0
2011-12-11;4;0
2011-12-10;5;0
2011-12-09;3;0
2011-12-08;4;0
2011-12-07;7;0
2011-12-06;9;0
2011-12-05;7;0
2011-12-04;10;0
2011-12-03;7;0
2011-12-02;2;0
2011-12-01;6;0
2011-11-30;10;0
2011-11-29;10;0
2011-11-28;5;0
2011-11-27;5;0
2011-11-26;2;0
2011-11-25;1;0
2011-11-24;6;0
2011-11-23;4;0
2011-11-22;6;0
2011-11-21;4;0
2011-11-20;7;0
2011-11-19;5;0
2011-11-18;2;0
2011-11-17;8;0
2011-11-16;4;0
2011-11-15;6;0
2011-11-14;9;0
2011-11-13;7;0
2011-11-12;4;0
2011-11-11;3;0
2011-11-10;3;0
2011-11-09;3;0
2011-11-08;7;0
2011-11-07;8;0
2011-11-06;11;0
2011-11-05;6;0
2011-11-04;4;0
2011-11-03;4;0
2011-11-02;8;0
2011-11-01;8;0
2011-10-31;5;0
2011-10-30;7;0
2011-10-29;3;0
2011-10-28;3;0
2011-10-27;4;0
2011-10-26;5;0
2011-10-25;6;0
2011-10-24;3;0
2011-10-23;5;0
2011-10-22;3;0
2011-10-21;6;0
2011-10-20;4;0
2011-10-19;7;0
2011-10-18;5;0
2011-10-17;7;0
2011-10-16;7;0
2011-10-15;6;0
2011-10-14;3;0
2011-10-13;3;0
2011-10-12;7;0
2011-10-11;11;0
2011-10-10;8;0
2011-10-09;7;0
2011-10-08;1;0
2011-10-07;3;0
2011-10-06;3;0
2011-10-05;4;0
2011-10-04;8;0
2011-10-03;1;0
2011-09-20;5;0
2011-09-19;5;0
2011-09-18;7;0
2011-09-17;1;0
2011-09-16;3;0
2011-09-15;5;0
2011-09-14;5;0
2011-09-13;6;0
2011-09-12;7;0
2011-09-11;7;0
2011-09-10;4;0
2011-09-09;9;0
2011-09-08;3;0
2011-09-07;2;0
2011-09-06;3;0
2011-09-05;4;0
2011-09-04;5;0
2011-09-03;2;0
2011-09-02;4;0
2011-09-01;2;0
2011-08-31;7;0
2011-08-30;6;0
2011-08-29;4;0
2011-08-28;4;0
2011-08-27;5;0
2011-08-26;3;0
2011-08-25;6;0
2011-08-24;2;0
2011-08-23;1;0
2011-08-22;2;0
2011-08-21;8;0
2011-08-20;3;0
2011-08-19;5;0
2011-08-09;4;0
2011-08-08;4;0
2011-08-07;5;0
2011-08-06;5;0
2011-08-05;6;0
2011-08-04;4;0
2011-08-03;2;0
2011-08-02;8;0
2011-08-01;5;0
2011-07-31;7;0
2011-07-30;5;0
2011-07-29;8;0
2011-07-28;5;0
2011-07-27;8;0
2011-07-26;5;0
2011-07-25;4;0
2011-07-24;7;0
2011-07-23;3;0
2011-07-22;3;0
2011-07-21;3;0
2011-07-20;4;0
2011-07-19;6;0
2011-07-18;5;0
2011-07-17;6;0
2011-07-16;5;0
2011-07-15;6;0
2011-07-14;12;0
2011-07-13;4;0
2011-07-12;9;0
2011-07-11;8;0
2011-07-10;9;0
2011-07-09;6;0
2011-07-08;8;0
2011-07-07;8;0
2011-07-06;2;0
2011-07-04;6;0
2011-07-03;10;0
2011-07-02;10;0
2011-07-01;9;0
2011-06-30;11;0
2011-06-29;7;0
2011-06-28;6;0
2011-06-27;8;0
2011-06-26;10;0
2011-06-25;7;0
2011-06-24;6;0
2011-06-23;6;0
2011-06-22;8;0
2011-06-21;6;0
2011-06-20;7;0
2011-06-19;6;0
2011-06-18;8;0
2011-06-17;10;0
2011-06-16;3;0
2011-06-15;12;0
2011-06-14;9;0
2011-06-13;11;0
2011-06-12;14;0
2011-06-11;6;0
2011-06-10;5;0
2011-06-09;10;0
2011-06-08;5;0
2011-06-07;6;0
2011-06-06;8;0
2011-06-05;7;0
2011-06-04;9;0
2011-06-03;6;0
2011-06-02;6;0
2011-06-01;7;0
2011-05-31;7;0
2011-05-30;6;0
2011-05-29;6;0
2011-05-28;7;0
2011-05-27;4;0
2011-05-23;6;0
2011-05-22;5;0
2011-05-21;5;0
2011-05-20;6;0
2011-05-19;5;0
2011-05-17;7;0
2011-05-16;6;0
2011-05-15;6;0
2011-05-14;3;0
2011-05-13;8;0
2011-05-12;8;0
2011-05-11;6;0
2011-05-10;4;0
2011-05-09;10;0
2011-05-08;9;0
2011-05-07;8;0
2011-05-06;8;0
2011-05-05;5;0
2011-05-04;6;0
2011-04-30;1;0
2011-04-29;5;0
2011-04-28;2;0
2011-04-27;7;0
2011-04-26;5;0
2011-04-25;1;0
2011-04-24;5;0
2011-04-23;9;0
2011-04-22;5;0
2011-04-21;4;0
2011-04-20;8;0
2011-04-19;8;0
2011-04-18;4;0
2011-04-17;5;0
2011-04-16;8;0
2011-04-15;4;0
2011-04-14;8;0
2011-04-13;5;0
2011-04-12;4;0
2011-04-11;1;0
2011-04-06;3;0
2011-04-05;9;0
2011-04-04;7;0
2011-04-03;5;0
2011-04-02;4;0
2011-04-01;7;0
2011-03-31;7;0
2011-03-30;10;0
2011-03-29;9;0
2011-03-28;4;0
2011-03-27;9;0
2011-03-26;8;0
2011-03-25;11;0
2011-03-24;8;0
2011-03-23;4;0
2011-03-22;5;0
2011-03-20;7;0
2011-03-19;6;0
2011-03-18;9;0
2011-03-17;8;0
2011-03-16;7;0
2011-03-15;10;0
2011-03-14;6;0
2011-03-13;4;0
2011-03-12;2;0
2011-03-11;8;0
2011-03-10;7;0
2011-03-09;3;0
2011-03-07;2;0
2011-03-06;1;0
2011-03-03;1;0
2011-03-02;1;0
2011-03-01;2;0
2011-02-28;1;0
2011-02-27;2;0
2011-02-26;9;0
2011-02-25;1;0
2011-02-24;4;0
2011-02-23;6;0
2011-02-22;7;0
2011-02-21;2;0
2011-02-20;1;0
2011-02-19;4;0
2011-02-18;1;0
2011-02-17;2;0
